Find Starlink 34809

NORAD ID: 65069 Int'l Des: 2025-165 Owner: SPXS Country: US Constellation: starlink operational
LEOCIRCULARRETROGRADESSO

リアルタイム位置

3D地球を読み込み中...

Starlink 34809について

説明を読み込み中...

次回通過

Passes for default location (London). Set your location on the main map for personalized predictions.

高度履歴

Loading altitude history...

軌道要素

1 65069U 25165P 26106.66823047 .00004316 00000-0 30313-3 0 9993
2 65069 97.6037 184.6452 0000855 121.3287 238.8024 15.05654213 40500
Epoch: Apr 16, 2026 • Age: 7 hours

現在のステータス

高度 555.0 km
速度 7.59 km/s
衛星直下点 41.65°N, 178.81°W
打ち上げ日 Jul 31, 2025
運用期間 0.7 years
タイプ internet

技術仕様

分類 Payload
質量 575.00 kg
乾燥質量 530.00 kg
総質量 575.00 kg
長さ 0.30 m
直径 4.10 m
スパン 29.00 m
形状 Box + pan
製造者 SPXS
バスタイプ Starlink V2MO
フェーズステータス In Orbit
所有者/国 SPXS/US

Most Searched